GW0740 Weather Reports


time (UTC)temp
C
wind
direction
speed
KPH
gust
KPH
rain 1hr
cm
rain 24hr
cm
rain mn
cm
humidity
%
barometer
mb
20260510192533 28 0 0.0 3.2 0.00 0.00 0.00 31 1013.3
20260510192032 29 0 0.0 6.4 0.00 0.00 0.00 31 1013.2
20260510191545 29 0 1.6 6.4 0.00 0.00 0.00 28 1013.1
20260510191033 29 0 0.0 4.8 0.00 0.00 0.00 31 1013.1
20260510190532 29 341 0.0 4.8 0.00 0.00 0.00 29 1013.1
20260510190052 29 0 0.0 0.0 0.00 0.00 0.00 31 1013.1
20260510185533 29 0 0.0 6.4 0.00 0.00 0.00 29 1013.2
20260510185032 29 0 0.0 6.4 0.00 0.00 0.00 29 1013.2
20260510184539 28 180 0.0 1.6 0.00 0.00 0.00 30 1013.3
20260510184033 28 0 0.0 3.2 0.00 0.00 0.00 31 1013.4
20260510183535 29 0 0.0 4.8 0.00 0.00 0.00 30 1013.3
20260510183046 29 0 0.0 4.8 0.00 0.00 0.00 31 1013.4
20260510182532 29 0 0.0 4.8 0.00 0.00 0.00 32 1013.3
20260510182033 29 245 0.0 6.4 0.00 0.00 0.00 30 1013.4
20260510181541 29 0 0.0 6.4 0.00 0.00 0.00 31 1013.4
20260510181032 28 0 0.0 4.8 0.00 0.00 0.00 32 1013.5
20260510180534 28 0 0.0 3.2 0.00 0.00 0.00 34 1013.4
20260510180040 29 0 0.0 3.2 0.00 0.00 0.00 35 1013.4
20260510175532 28 0 0.0 4.8 0.00 0.00 0.00 34 1013.5
20260510175032 28 0 0.0 4.8 0.00 0.00 0.00 32 1013.5
20260510174545 28 0 0.0 8.0 0.00 0.00 0.00 35 1013.6
20260510174034 28 180 0.0 8.0 0.00 0.00 0.00 34 1013.6
20260510173532 28 0 0.0 6.4 0.00 0.00 0.00 33 1013.7
20260510173042 28 0 0.0 6.4 0.00 0.00 0.00 35 1013.6
20260510172532 28 0 0.0 4.8 0.00 0.00 0.00 33 1013.6
20260510172033 28 349 0.0 3.2 0.00 0.00 0.00 32 1013.6
20260510171546 28 0 0.0 8.0 0.00 0.00 0.00 33 1013.7
20260510171032 28 0 0.0 8.0 0.00 0.00 0.00 34 1013.6
20260510170532 28 0 0.0 8.0 0.00 0.00 0.00 36 1013.8
20260510170042 28 0 0.0 3.2 0.00 0.00 0.00 37 1013.9
20260510165532 28 0 0.0 3.2 0.00 0.00 0.00 37 1014.0
20260510165033 28 0 0.0 4.8 0.00 0.00 0.00 36 1014.1
20260510164547 27 0 0.0 4.8 0.00 0.00 0.00 37 1014.1
20260510164032 27 0 0.0 1.6 0.00 0.00 0.00 37 1014.1
20260510163533 27 0 0.0 1.6 0.00 0.00 0.00 36 1014.1
20260510163046 27 0 0.0 1.6 0.00 0.00 0.00 36 1014.2
20260510162534 27 0 0.0 0.0 0.00 0.00 0.00 38 1014.1
20260510162032 27 0 0.0 3.2 0.00 0.00 0.00 38 1014.1
20260510161542 27 0 0.0 3.2 0.00 0.00 0.00 37 1014.1
20260510161034 27 0 0.0 4.8 0.00 0.00 0.00 39 1014.2
20260510160532 26 0 0.0 4.8 0.00 0.00 0.00 42 1014.3
20260510160052 27 180 0.0 8.0 0.00 0.00 0.00 40 1014.4
20260510155533 26 0 0.0 8.0 0.00 0.00 0.00 42 1014.3
20260510155033 26 0 0.0 3.2 0.00 0.00 0.00 43 1014.3
20260510154552 26 0 0.0 3.2 0.00 0.00 0.00 44 1014.4
20260510154033 26 0 0.0 1.6 0.00 0.00 0.00 44 1014.4
20260510153535 25 0 0.0 1.6 0.00 0.00 0.00 44 1014.4
20260510153048 26 0 0.0 3.2 0.00 0.00 0.00 43 1014.6
20260510152532 26 0 0.0 3.2 0.00 0.00 0.00 46 1014.6
20260510152031 26 0 0.0 4.8 0.00 0.00 0.00 45 1014.5
20260510151543 26 0 0.0 4.8 0.00 0.00 0.00 42 1014.5
20260510151033 25 0 0.0 0.0 0.00 0.00 0.00 42 1014.6
20260510150532 26 0 0.0 0.0 0.00 0.00 0.00 44 1014.6
20260510150043 25 0 0.0 0.0 0.00 0.00 0.00 45 1014.5
20260510145532 25 0 0.0 0.0 0.00 0.00 0.00 46 1014.6
20260510145031 25 0 0.0 0.0 0.00 0.00 0.00 46 1014.6
20260510144549 24 0 0.0 0.0 0.00 0.00 0.00 45 1014.6
20260510144032 24 0 0.0 0.0 0.00 0.00 0.00 50 1014.6
20260510143533 24 0 0.0 0.0 0.00 0.00 0.00 46 1014.7
20260510143040 24 0 0.0 0.0 0.00 0.00 0.00 49 1014.6
20260510142528 23 0 0.0 0.0 0.00 0.00 0.00 54 1014.5
20260510142034 23 0 0.0 0.0 0.00 0.00 0.00 53 1014.4
20260510141545 23 0 0.0 0.0 0.00 0.00 0.00 55 1014.4
20260510141031 22 0 0.0 0.0 0.00 0.00 0.00 60 1014.5
20260510140529 22 0 0.0 0.0 0.00 0.00 0.00 59 1014.4
20260510140045 22 0 0.0 0.0 0.00 0.00 0.00 61 1014.4
20260510135534 22 0 0.0 0.0 0.00 0.00 0.00 61 1014.4
20260510135034 21 0 0.0 0.0 0.00 0.00 0.00 65 1014.5
20260510134539 21 0 0.0 0.0 0.00 0.00 0.00 67 1014.4
20260510134034 21 0 0.0 0.0 0.00 0.00 0.00 69 1014.4
20260510133533 20 0 0.0 0.0 0.00 0.00 0.00 73 1014.4
20260510133042 20 0 0.0 0.0 0.00 0.00 0.00 73 1014.4
20260510132532 19 0 0.0 0.0 0.00 0.00 0.00 77 1014.5
20260510132034 18 0 0.0 0.0 0.00 0.00 0.00 80 1014.4
20260510131542 18 0 0.0 0.0 0.00 0.00 0.00 81 1014.4
20260510131032 17 0 0.0 0.0 0.00 0.00 0.00 83 1014.6
20260510130533 17 0 0.0 0.0 0.00 0.00 0.00 85 1014.6
20260510130040 16 0 0.0 0.0 0.00 0.00 0.00 87 1014.6
20260510125532 16 0 0.0 0.0 0.00 0.00 0.00 88 1014.6
20260510125033 15 0 0.0 0.0 0.00 0.00 0.00 88 1014.4
20260510124545 15 0 0.0 0.0 0.00 0.00 0.00 88 1014.3
20260510124034 15 0 0.0 0.0 0.00 0.00 0.00 87 1014.2
20260510123533 15 0 0.0 0.0 0.00 0.00 0.00 87 1014.2
20260510123043 14 0 0.0 0.0 0.00 0.00 0.00 86 1014.3
20260510122534 14 0 0.0 0.0 0.00 0.00 0.00 86 1014.2
20260510122033 13 0 0.0 0.0 0.00 0.00 0.00 86 1014.2
20260510121539 13 0 0.0 0.0 0.00 0.00 0.00 86 1014.1
20260510121036 13 0 0.0 0.0 0.00 0.00 0.00 86 1014.0
20260510120533 13 0 0.0 0.0 0.00 0.00 0.00 86 1013.7
20260510120038 12 0 0.0 0.0 0.00 0.00 0.00 87 1013.6
20260510115535 12 0 0.0 0.0 0.00 0.00 0.00 87 1013.5
20260510115033 12 0 0.0 0.0 0.00 0.00 0.00 87 1013.4
20260510114544 12 0 0.0 0.0 0.00 0.00 0.00 87 1013.5
20260510114033 12 0 0.0 0.0 0.00 0.00 0.00 87 1013.4
20260510113533 11 0 0.0 0.0 0.00 0.00 0.00 87 1013.4
20260510113045 11 0 0.0 0.0 0.00 0.00 0.00 88 1013.4
20260510112533 11 0 0.0 0.0 0.00 0.00 0.00 88 1013.3
20260510112035 11 0 0.0 0.0 0.00 0.00 0.00 88 1013.2
20260510111603 11 0 0.0 0.0 0.00 0.00 0.00 88 1013.2
20260510111032 11 0 0.0 0.0 0.00 0.00 0.00 88 1013.2
20260510110534 11 0 0.0 0.0 0.00 0.00 0.00 88 1013.1
20260510110043 11 0 0.0 0.0 0.00 0.00 0.00 88 1013.0
20260510105533 11 0 0.0 0.0 0.00 0.00 0.00 88 1013.0
20260510105034 11 0 0.0 0.0 0.00 0.00 0.00 88 1013.0
20260510104539 11 0 0.0 0.0 0.00 0.00 0.00 88 1013.0
20260510104033 11 0 0.0 0.0 0.00 0.00 0.00 89 1013.0
20260510103533 11 0 0.0 0.0 0.00 0.00 0.00 88 1012.9
20260510103047 11 0 0.0 0.0 0.00 0.00 0.00 88 1012.8
20260510102533 11 0 0.0 0.0 0.00 0.00 0.00 88 1012.7
20260510102032 11 0 0.0 0.0 0.00 0.00 0.00 89 1012.6
20260510101543 11 0 0.0 0.0 0.00 0.00 0.00 88 1012.4
20260510101033 11 0 0.0 0.0 0.00 0.00 0.00 88 1012.4
20260510100533 11 0 0.0 0.0 0.00 0.00 0.00 88 1012.3
20260510100043 11 0 0.0 0.0 0.00 0.00 0.00 88 1012.3
20260510095534 11 0 0.0 0.0 0.00 0.00 0.00 89 1012.2
20260510095034 11 0 0.0 0.0 0.00 0.00 0.00 89 1012.2
20260510094538 12 0 0.0 0.0 0.00 0.00 0.00 89 1012.2
20260510094033 12 0 0.0 0.0 0.00 0.00 0.00 88 1012.1
20260510093533 12 0 0.0 0.0 0.00 0.00 0.00 88 1012.2
20260510093102 12 0 0.0 0.0 0.00 0.00 0.00 88 1012.1
20260510092532 12 0 0.0 0.0 0.00 0.00 0.00 88 1012.1
20260510092033 12 0 0.0 0.0 0.00 0.00 0.00 88 1012.1
20260510091549 12 0 0.0 0.0 0.00 0.00 0.00 88 1012.1
20260510091033 12 0 0.0 0.0 0.00 0.00 0.00 88 1012.0
20260510090534 12 0 0.0 0.0 0.00 0.00 0.00 88 1012.0
20260510090054 12 0 0.0 0.0 0.00 0.00 0.00 88 1011.9
20260510085532 12 0 0.0 0.0 0.00 0.00 0.00 88 1011.7
20260510085032 12 0 0.0 0.0 0.00 0.00 0.00 88 1011.7
20260510084540 12 0 0.0 0.0 0.00 0.00 0.00 88 1011.6
20260510084033 13 0 0.0 0.0 0.00 0.00 0.00 88 1011.7
20260510083537 13 0 0.0 0.0 0.00 0.00 0.00 88 1011.7
20260510083041 13 0 0.0 0.0 0.00 0.00 0.00 88 1011.7
20260510082534 13 0 0.0 0.0 0.00 0.00 0.00 88 1011.7
20260510082033 13 0 0.0 0.0 0.00 0.00 0.00 88 1011.7
20260510081606 13 0 0.0 0.0 0.00 0.00 0.00 88 1011.6
20260510081032 13 0 0.0 0.0 0.00 0.00 0.00 88 1011.6
20260510080533 13 0 0.0 0.0 0.00 0.00 0.00 88 1011.6
20260510080044 13 0 0.0 0.0 0.00 0.00 0.00 88 1011.7
20260510075534 13 0 0.0 0.0 0.00 0.00 0.00 88 1011.5
20260510075033 14 0 0.0 0.0 0.00 0.00 0.00 88 1011.5
20260510074600 14 0 0.0 0.0 0.00 0.00 0.00 88 1011.5
20260510074033 14 0 0.0 0.0 0.00 0.00 0.00 88 1011.5
20260510073532 14 0 0.0 0.0 0.00 0.00 0.00 88 1011.5
20260510073044 14 0 0.0 0.0 0.00 0.00 0.00 88 1011.5
20260510072533 14 0 0.0 0.0 0.00 0.00 0.00 88 1011.4
20260510072034 14 0 0.0 0.0 0.00 0.00 0.00 88 1011.4
20260510071541 14 0 0.0 0.0 0.00 0.00 0.00 88 1011.5
20260510071033 15 0 0.0 0.0 0.00 0.00 0.00 88 1011.4
20260510070532 15 0 0.0 0.0 0.00 0.00 0.00 88 1011.3
20260510070042 15 0 0.0 0.0 0.00 0.00 0.00 88 1011.4
20260510065534 15 0 0.0 0.0 0.00 0.00 0.00 87 1011.3
20260510065033 15 0 0.0 0.0 0.00 0.00 0.00 87 1011.4
20260510064535 15 0 0.0 0.0 0.00 0.00 0.00 87 1011.4
20260510064034 15 0 0.0 0.0 0.00 0.00 0.00 87 1011.4
20260510063534 15 0 0.0 0.0 0.00 0.00 0.00 87 1011.4
20260510063044 15 0 0.0 0.0 0.00 0.00 0.00 87 1011.5
20260510062534 15 0 0.0 0.0 0.00 0.00 0.00 87 1011.4
20260510062033 15 0 0.0 0.0 0.00 0.00 0.00 87 1011.4
20260510061544 15 0 0.0 0.0 0.00 0.00 0.00 86 1011.4
20260510061033 15 0 0.0 0.0 0.00 0.00 0.00 86 1011.3
20260510060534 16 0 0.0 0.0 0.00 0.00 0.00 86 1011.4
20260510060041 16 0 0.0 0.0 0.00 0.00 0.00 85 1011.3
20260510055534 16 0 0.0 0.0 0.00 0.00 0.00 85 1011.3
20260510055034 16 0 0.0 0.0 0.00 0.00 0.00 85 1011.3
20260510054541 16 0 0.0 0.0 0.00 0.00 0.00 84 1011.3
20260510054032 16 0 0.0 0.0 0.00 0.00 0.00 84 1011.4
20260510053535 16 0 0.0 0.0 0.00 0.00 0.00 84 1011.4
20260510053041 16 0 0.0 0.0 0.00 0.00 0.00 84 1011.5
20260510052533 16 0 0.0 0.0 0.00 0.00 0.00 83 1011.4
20260510052033 16 0 0.0 0.0 0.00 0.00 0.00 83 1011.4
20260510051544 16 0 0.0 0.0 0.00 0.00 0.00 83 1011.4
20260510051033 16 0 0.0 0.0 0.00 0.00 0.00 83 1011.4
20260510050533 16 0 0.0 0.0 0.00 0.00 0.00 83 1011.4
20260510050045 16 0 0.0 0.0 0.00 0.00 0.00 83 1011.4
20260510045536 16 0 0.0 0.0 0.00 0.00 0.00 83 1011.4
20260510045034 16 0 0.0 0.0 0.00 0.00 0.00 83 1011.4
20260510044640 16 0 0.0 0.0 0.00 0.00 0.00 83 1011.4
20260510044033 16 0 0.0 0.0 0.00 0.00 0.00 83 1011.4
20260510043533 16 0 0.0 0.0 0.00 0.00 0.00 83 1011.3
20260510043038 16 0 0.0 0.0 0.00 0.00 0.00 82 1011.3
20260510042533 16 0 0.0 0.0 0.00 0.00 0.00 82 1011.2
20260510042033 16 0 0.0 0.0 0.00 0.00 0.00 82 1011.1
20260510041537 16 0 0.0 0.0 0.00 0.00 0.00 82 1011.3
20260510041034 16 0 0.0 0.0 0.00 0.00 0.00 82 1011.1
20260510040533 16 0 0.0 0.0 0.00 0.00 0.00 82 1011.1
20260510040047 16 0 0.0 0.0 0.00 0.00 0.00 81 1011.2
20260510035534 16 0 0.0 0.0 0.00 0.00 0.00 81 1011.1
20260510035034 16 0 0.0 0.0 0.00 0.00 0.00 81 1011.0
20260510034542 16 0 0.0 0.0 0.00 0.00 0.00 81 1011.0
20260510034036 17 0 0.0 0.0 0.00 0.00 0.00 80 1011.0
20260510033533 17 0 0.0 0.0 0.00 0.00 0.00 80 1011.0
20260510033044 17 0 0.0 0.0 0.00 0.00 0.00 80 1011.0
20260510032534 17 0 0.0 0.0 0.00 0.00 0.00 80 1011.1
20260510032034 17 0 0.0 0.0 0.00 0.00 0.00 80 1011.1
20260510031541 17 0 0.0 0.0 0.00 0.00 0.00 80 1011.0
20260510031033 17 0 0.0 0.0 0.00 0.00 0.00 79 1010.9
20260510030533 17 0 0.0 0.0 0.00 0.00 0.00 79 1010.9
20260510030041 17 0 0.0 0.0 0.00 0.00 0.00 79 1010.9
20260510025533 17 0 0.0 0.0 0.00 0.00 0.00 79 1010.9
20260510025033 17 0 0.0 0.0 0.00 0.00 0.00 79 1010.8
20260510024539 17 0 0.0 0.0 0.00 0.00 0.00 79 1010.7
20260510024032 17 0 0.0 0.0 0.00 0.00 0.00 79 1010.8
20260510023532 17 0 0.0 0.0 0.00 0.00 0.00 79 1010.7
20260510023039 17 0 0.0 0.0 0.00 0.00 0.00 80 1010.7
20260510022532 16 0 0.0 0.0 0.00 0.00 0.00 80 1010.6
20260510022033 16 0 0.0 0.0 0.00 0.00 0.00 79 1010.6
20260510021541 16 0 0.0 0.0 0.00 0.00 0.00 79 1010.5
20260510021032 16 0 0.0 0.0 0.00 0.00 0.00 80 1010.4
20260510020532 16 0 0.0 0.0 0.00 0.00 0.00 80 1010.3
20260510020050 16 0 0.0 0.0 0.00 0.00 0.00 79 1010.3
20260510015533 16 0 0.0 0.0 0.00 0.00 0.00 79 1010.2
20260510015033 17 0 0.0 0.0 0.00 0.00 0.00 79 1010.0
20260510014540 17 0 0.0 0.0 0.00 0.00 0.00 79 1010.0
20260510014032 17 0 0.0 0.0 0.00 0.00 0.00 79 1009.9
20260510013532 17 0 0.0 0.0 0.00 0.00 0.00 79 1009.8
20260510013036 17 0 0.0 0.0 0.00 0.00 0.00 78 1009.9
20260510012534 17 0 0.0 0.0 0.00 0.00 0.00 77 1009.8
20260510012033 17 0 0.0 0.0 0.00 0.00 0.00 77 1009.8
20260510011539 17 0 0.0 0.0 0.00 0.00 0.00 77 1009.7
20260510011032 17 0 0.0 0.0 0.00 0.00 0.00 76 1009.6
20260510010532 17 0 0.0 0.0 0.00 0.00 0.00 76 1009.5
20260510010046 17 0 0.0 0.0 0.00 0.00 0.00 75 1009.4
20260510005532 17 0 0.0 0.0 0.00 0.00 0.00 74 1009.5
20260510005032 18 0 0.0 0.0 0.00 0.00 0.00 74 1009.5
20260510004540 18 0 0.0 0.0 0.00 0.00 0.00 74 1009.4
20260510004032 18 0 0.0 0.0 0.00 0.00 0.00 73 1009.3
20260510003532 18 0 0.0 0.0 0.00 0.00 0.00 72 1009.3
20260510003049 18 0 0.0 0.0 0.00 0.00 0.00 72 1009.3
20260510002531 18 0 0.0 0.0 0.00 0.00 0.00 71 1009.2
20260510002033 19 0 0.0 0.0 0.00 0.00 0.00 70 1009.1
20260510001545 19 0 0.0 0.0 0.00 0.00 0.00 70 1009.0
20260510001034 20 0 0.0 0.0 0.00 0.00 0.00 70 1009.1
20260510000533 20 0 0.0 0.0 0.00 0.00 0.00 68 1009.1
20260510000040 20 0 0.0 0.0 0.00 0.00 0.00 65 1009.0
20260509235532 20 0 0.0 0.0 0.00 0.00 0.00 64 1008.9
20260509235032 21 0 0.0 0.0 0.00 0.00 0.00 63 1008.8
20260509234557 21 0 0.0 0.0 0.00 0.00 0.00 62 1008.8
20260509234035 21 0 0.0 0.0 0.00 0.00 0.00 61 1008.7
20260509233532 21 0 0.0 0.0 0.00 0.00 0.00 60 1008.7
20260509233040 21 0 0.0 0.0 0.00 0.00 0.00 61 1008.7
20260509232532 21 0 0.0 0.0 0.00 0.00 0.00 59 1008.8
20260509232031 22 0 0.0 0.0 0.00 0.00 0.00 58 1008.8
20260509231540 22 0 0.0 0.0 0.00 0.00 0.00 58 1008.8
20260509231032 22 0 0.0 0.0 0.00 0.00 0.00 58 1008.7
20260509230533 22 0 0.0 0.0 0.00 0.00 0.00 57 1008.8
20260509230045 22 0 0.0 0.0 0.00 0.00 0.00 57 1008.8
20260509225535 22 0 0.0 0.0 0.00 0.00 0.00 57 1008.7
20260509225032 22 0 0.0 0.0 0.00 0.00 0.00 58 1008.7
20260509224541 22 0 0.0 0.0 0.00 0.00 0.00 59 1008.7
20260509224034 22 0 0.0 0.0 0.00 0.00 0.00 59 1008.6
20260509223533 22 0 0.0 0.0 0.00 0.00 0.00 59 1008.6
20260509223039 22 0 0.0 0.0 0.00 0.00 0.00 59 1008.6
20260509222532 22 0 0.0 0.0 0.00 0.00 0.00 59 1008.6
20260509222035 22 0 0.0 0.0 0.00 0.00 0.00 59 1008.6
20260509221539 22 0 0.0 0.0 0.00 0.00 0.00 60 1008.7
20260509221031 22 0 0.0 0.0 0.00 0.00 0.00 58 1008.8
20260509220532 22 0 0.0 0.0 0.00 0.00 0.00 58 1008.7
20260509220040 22 0 0.0 0.0 0.00 0.00 0.00 57 1008.7
20260509215533 22 0 0.0 0.0 0.00 0.00 0.00 56 1008.7
20260509215033 23 0 0.0 0.0 0.00 0.00 0.00 56 1008.7
20260509214543 23 0 0.0 0.0 0.00 0.00 0.00 56 1008.5
20260509214036 23 0 0.0 0.0 0.00 0.00 0.00 54 1008.4
20260509213532 23 0 0.0 0.0 0.00 0.00 0.00 54 1008.4
20260509213050 23 0 0.0 0.0 0.00 0.00 0.00 55 1008.5
20260509212533 23 0 0.0 0.0 0.00 0.00 0.00 53 1008.5
20260509212032 23 0 0.0 0.0 0.00 0.00 0.00 52 1008.5
20260509211551 23 0 0.0 0.0 0.00 0.00 0.00 50 1008.5
20260509211035 23 0 0.0 6.4 0.00 0.00 0.00 51 1008.4
20260509210532 23 0 0.0 6.4 0.00 0.00 0.00 50 1008.3
20260509210044 23 180 0.0 6.4 0.00 0.00 0.00 48 1008.5
20260509205532 23 0 0.0 9.7 0.00 0.00 0.00 50 1008.3
20260509205032 23 0 0.0 9.7 0.00 0.00 0.00 49 1008.3
20260509204542 23 0 0.0 6.4 0.00 0.00 0.00 48 1008.2
20260509204033 24 0 0.0 6.4 0.00 0.00 0.00 48 1008.2
20260509203533 23 180 0.0 4.8 0.00 0.00 0.00 50 1008.2
20260509203103 23 0 0.0 6.4 0.00 0.00 0.00 48 1008.1
20260509202532 23 0 0.0 6.4 0.00 0.00 0.00 48 1008.0
20260509202036 23 0 0.0 6.4 0.00 0.00 0.00 49 1008.0
20260509201541 23 0 0.0 4.8 0.00 0.00 0.00 48 1008.0
20260509201032 23 0 0.0 4.8 0.00 0.00 0.00 50 1008.1
20260509200532 23 0 0.0 6.4 0.00 0.00 0.00 50 1008.2
20260509200047 23 0 0.0 6.4 0.00 0.00 0.00 49 1008.4
20260509195532 23 0 0.0 4.8 0.00 0.00 0.00 50 1008.4
20260509195032 23 0 0.0 4.8 0.00 0.00 0.00 51 1008.5
20260509194542 23 0 0.0 4.8 0.00 0.00 0.00 51 1008.6
20260509194032 23 0 0.0 9.7 0.00 0.00 0.00 52 1008.6
20260509193532 23 0 0.0 9.7 0.00 0.00 0.00 49 1008.7
20260509193046 23 180 0.0 6.4 0.00 0.00 0.00 52 1008.8